| time (UTC) | temp F | wind direction | speed knots | gust knots | rain 1hr in | rain 24hr in | rain mn in | humidity % | barometer mb |
| 20260505224035 | 58 | 355 | 1.7 | 5.2 | 0.00 | 0.00 | 0.00 | 84 | 1017.5 |
| 20260505223534 | 58 | 266 | 1.7 | 5.2 | 0.00 | 0.00 | 0.00 | 84 | 1017.5 |
| 20260505223036 | 58 | 304 | 1.7 | 5.2 | 0.00 | 0.00 | 0.00 | 84 | 1017.7 |
| 20260505222535 | 58 | 315 | 1.7 | 6.1 | 0.00 | 0.00 | 0.00 | 84 | 1017.7 |
| 20260505222034 | 58 | 321 | 1.7 | 6.1 | 0.00 | 0.00 | 0.00 | 83 | 1017.8 |
| 20260505221534 | 58 | 325 | 1.7 | 5.2 | 0.00 | 0.00 | 0.00 | 84 | 1017.8 |
| 20260505221034 | 58 | 336 | 1.7 | 5.2 | 0.00 | 0.00 | 0.00 | 84 | 1017.7 |
| 20260505220538 | 58 | 0 | 2.6 | 6.1 | 0.00 | 0.00 | 0.00 | 83 | 1017.8 |
| 20260505220035 | 58 | 23 | 2.6 | 6.1 | 0.00 | 0.00 | 0.00 | 83 | 1017.8 |
| 20260505215530 | 59 | 307 | 1.7 | 5.2 | 0.00 | 0.00 | 0.00 | 83 | 1017.9 |
| 20260505215027 | 59 | 341 | 2.6 | 5.2 | 0.00 | 0.00 | 0.00 | 83 | 1017.7 |
| 20260505214517 | 59 | 313 | 2.6 | 6.1 | 0.00 | 0.00 | 0.00 | 83 | 1017.8 |
| 20260505214242 | 59 | 283 | 2.6 | 7.0 | 0.00 | 0.00 | 0.00 | 83 | 1017.8 |
| 20260505213506 | 59 | 264 | 2.6 | 7.0 | 0.00 | 0.00 | 0.00 | 83 | 1017.9 |
| 20260505212955 | 59 | 330 | 2.6 | 6.1 | 0.00 | 0.00 | 0.00 | 83 | 1017.8 |
| 20260505212450 | 59 | 290 | 3.5 | 5.2 | 0.00 | 0.00 | 0.00 | 82 | 1017.6 |
| 20260505211944 | 59 | 331 | 2.6 | 6.1 | 0.00 | 0.00 | 0.00 | 82 | 1017.8 |
| 20260505211935 | 59 | 257 | 2.6 | 6.1 | 0.00 | 0.00 | 0.00 | 81 | 1017.6 |
| 20260505210927 | 60 | 281 | 2.6 | 5.2 | 0.00 | 0.00 | 0.00 | 81 | 1017.7 |
| 20260505210653 | 60 | 263 | 2.6 | 6.1 | 0.00 | 0.00 | 0.00 | 80 | 1017.5 |
| 20260505205911 | 60 | 355 | 2.6 | 6.1 | 0.00 | 0.00 | 0.00 | 80 | 1017.5 |
| 20260505205406 | 60 | 314 | 2.6 | 6.1 | 0.00 | 0.00 | 0.00 | 80 | 1017.6 |
| 20260505204900 | 61 | 349 | 1.7 | 5.2 | 0.00 | 0.00 | 0.00 | 81 | 1017.5 |
| 20260505204619 | 61 | 347 | 1.7 | 6.1 | 0.00 | 0.00 | 0.00 | 80 | 1017.5 |
| 20260505203841 | 61 | 349 | 1.7 | 6.1 | 0.00 | 0.00 | 0.00 | 80 | 1017.4 |
| 20260505203335 | 61 | 306 | 0.9 | 5.2 | 0.00 | 0.00 | 0.00 | 80 | 1017.6 |
| 20260505202826 | 61 | 333 | 1.7 | 5.2 | 0.00 | 0.00 | 0.00 | 79 | 1017.7 |
| 20260505202550 | 61 | 333 | 2.6 | 6.1 | 0.00 | 0.00 | 0.00 | 79 | 1017.6 |
| 20260505201813 | 61 | 255 | 2.6 | 6.1 | 0.00 | 0.00 | 0.00 | 79 | 1017.7 |
| 20260505201535 | 61 | 349 | 2.6 | 5.2 | 0.00 | 0.00 | 0.00 | 80 | 1017.6 |
| 20260505200757 | 61 | 307 | 2.6 | 5.2 | 0.00 | 0.00 | 0.00 | 79 | 1017.6 |
| 20260505200252 | 61 | 340 | 1.7 | 5.2 | 0.00 | 0.00 | 0.00 | 79 | 1017.6 |
| 20260505195741 | 61 | 304 | 1.7 | 5.2 | 0.00 | 0.00 | 0.00 | 78 | 1017.6 |
| 20260505195235 | 61 | 292 | 2.6 | 7.0 | 0.00 | 0.00 | 0.00 | 77 | 1017.6 |
| 20260505194729 | 62 | 302 | 2.6 | 7.0 | 0.00 | 0.00 | 0.00 | 77 | 1017.7 |
| 20260505194220 | 62 | 294 | 1.7 | 5.2 | 0.00 | 0.00 | 0.00 | 77 | 1017.6 |
| 20260505193944 | 63 | 316 | 0.9 | 1.7 | 0.00 | 0.00 | 0.00 | 77 | 1017.5 |
| 20260505193208 | 63 | 5 | 1.7 | 6.1 | 0.00 | 0.00 | 0.00 | 76 | 1017.6 |
| 20260505192658 | 63 | 24 | 1.7 | 6.1 | 0.00 | 0.00 | 0.00 | 75 | 1017.5 |
| 20260505192151 | 63 | 186 | 0.9 | 4.3 | 0.00 | 0.00 | 0.00 | 78 | 1017.6 |
| 20260505192018 | 63 | 39 | 0.9 | 4.3 | 0.00 | 0.00 | 0.00 | 77 | 1017.5 |
| 20260505191935 | 63 | 142 | 0.9 | 4.3 | 0.00 | 0.00 | 0.00 | 78 | 1017.5 |
| 20260505190901 | 62 | 178 | 1.7 | 5.2 | 0.00 | 0.00 | 0.00 | 79 | 1017.3 |
| 20260505190123 | 62 | 333 | 0.9 | 5.2 | 0.00 | 0.00 | 0.00 | 80 | 1017.2 |
| 20260505185613 | 61 | 327 | 0.9 | 4.3 | 0.00 | 0.00 | 0.00 | 83 | 1017.4 |
| 20260505185108 | 61 | 0 | 1.7 | 5.2 | 0.00 | 0.00 | 0.00 | 83 | 1017.3 |
| 20260505184601 | 60 | 165 | 1.7 | 5.2 | 0.00 | 0.00 | 0.00 | 84 | 1017.2 |
| 20260505184051 | 59 | 163 | 1.7 | 4.3 | 0.00 | 0.00 | 0.00 | 85 | 1017.4 |
| 20260505183545 | 58 | 134 | 1.7 | 4.3 | 0.00 | 0.00 | 0.00 | 85 | 1017.3 |
| 20260505183040 | 58 | 65 | 0.9 | 4.3 | 0.00 | 0.00 | 0.00 | 84 | 1017.2 |
| 20260505182801 | 58 | 142 | 1.7 | 3.5 | 0.00 | 0.00 | 0.00 | 84 | 1017.2 |
| 20260505182023 | 58 | 148 | 1.7 | 3.5 | 0.00 | 0.00 | 0.00 | 84 | 1017.2 |
| 20260505181518 | 58 | 348 | 0.9 | 3.5 | 0.00 | 0.00 | 0.00 | 84 | 1017.1 |
| 20260505181232 | 58 | 319 | 0.9 | 3.5 | 0.00 | 0.00 | 0.00 | 85 | 1016.9 |
| 20260505181107 | 59 | 321 | 0.9 | 3.5 | 0.00 | 0.00 | 0.00 | 85 | 1017.1 |
| 20260505175952 | 58 | 304 | 1.7 | 4.3 | 0.00 | 0.00 | 0.00 | 84 | 1017.2 |
| 20260505175443 | 58 | 323 | 0.9 | 5.2 | 0.00 | 0.00 | 0.00 | 85 | 1017.0 |
| 20260505174938 | 58 | 338 | 0.0 | 5.2 | 0.00 | 0.00 | 0.00 | 85 | 1017.0 |
| 20260505174431 | 58 | 317 | 0.9 | 2.6 | 0.00 | 0.00 | 0.00 | 85 | 1016.8 |
| 20260505173921 | 58 | 336 | 0.9 | 3.5 | 0.00 | 0.00 | 0.00 | 84 | 1016.8 |
| 20260505173415 | 58 | 340 | 0.9 | 3.5 | 0.00 | 0.00 | 0.00 | 84 | 1016.8 |
| 20260505172908 | 58 | 355 | 1.7 | 3.5 | 0.00 | 0.00 | 0.00 | 84 | 1016.8 |
| 20260505172408 | 58 | 348 | 0.9 | 3.5 | 0.00 | 0.00 | 0.00 | 84 | 1016.8 |
| 20260505171907 | 58 | 15 | 0.9 | 3.5 | 0.00 | 0.00 | 0.00 | 83 | 1016.8 |
| 20260505171416 | 57 | 140 | 0.9 | 3.5 | 0.00 | 0.00 | 0.00 | 82 | 1016.7 |
| 20260505171141 | 57 | 146 | 0.9 | 3.5 | 0.00 | 0.00 | 0.00 | 82 | 1016.7 |
| 20260505170407 | 57 | 146 | 1.7 | 4.3 | 0.00 | 0.00 | 0.00 | 81 | 1016.7 |
| 20260505165909 | 57 | 146 | 0.9 | 4.3 | 0.00 | 0.00 | 0.00 | 81 | 1016.8 |
| 20260505165405 | 58 | 338 | 0.9 | 1.7 | 0.00 | 0.00 | 0.00 | 82 | 1016.9 |
| 20260505164905 | 57 | 157 | 0.0 | 1.7 | 0.00 | 0.00 | 0.00 | 82 | 1016.8 |
| 20260505164405 | 57 | 157 | 0.0 | 1.7 | 0.00 | 0.00 | 0.00 | 83 | 1016.9 |
| 20260505163902 | 57 | 160 | 0.9 | 1.7 | 0.00 | 0.00 | 0.00 | 82 | 1016.8 |
| 20260505163632 | 57 | 160 | 0.9 | 1.7 | 0.00 | 0.00 | 0.00 | 83 | 1016.7 |
| 20260505162906 | 56 | 171 | 0.9 | 1.7 | 0.00 | 0.00 | 0.00 | 82 | 1016.8 |
| 20260505162859 | 56 | 161 | 0.9 | 1.7 | 0.00 | 0.00 | 0.00 | 83 | 1016.6 |
| 20260505161859 | 56 | 171 | 0.9 | 3.5 | 0.00 | 0.00 | 0.00 | 82 | 1016.8 |
| 20260505161359 | 56 | 171 | 0.9 | 3.5 | 0.00 | 0.00 | 0.00 | 82 | 1016.8 |
| 20260505160849 | 56 | 173 | 0.0 | 1.7 | 0.00 | 0.00 | 0.00 | 83 | 1016.9 |
| 20260505160343 | 56 | 172 | 0.9 | 1.7 | 0.00 | 0.00 | 0.00 | 83 | 1016.8 |
| 20260505153321 | 55 | 141 | 0.9 | 1.7 | 0.00 | 0.00 | 0.00 | 85 | 1016.8 |
| 20260505152820 | 55 | 123 | 0.9 | 1.7 | 0.00 | 0.00 | 0.00 | 85 | 1016.8 |
| 20260505152319 | 55 | 109 | 0.9 | 1.7 | 0.00 | 0.00 | 0.00 | 86 | 1016.9 |
| 20260505151819 | 55 | 97 | 0.0 | 1.7 | 0.00 | 0.00 | 0.00 | 87 | 1016.8 |
| 20260505151320 | 55 | 146 | 0.0 | 1.7 | 0.00 | 0.00 | 0.00 | 88 | 1016.8 |
| 20260505151052 | 54 | 130 | 0.0 | 0.0 | 0.00 | 0.00 | 0.00 | 88 | 1016.8 |
| 20260505150321 | 54 | 136 | 0.0 | 0.9 | 0.00 | 0.00 | 0.00 | 89 | 1016.8 |
| 20260505140311 | 54 | 156 | 0.0 | 0.9 | 0.00 | 0.00 | 0.00 | 90 | 1016.3 |
| 20260505130229 | 53 | 156 | 0.0 | 1.7 | 0.00 | 0.00 | 0.00 | 90 | 1015.9 |
| 20260505124705 | 53 | 155 | 0.0 | 0.0 | 0.00 | 0.00 | 0.00 | 90 | 1016.0 |
| 20260505124202 | 53 | 155 | 0.0 | 0.0 | 0.00 | 0.00 | 0.00 | 90 | 1016.0 |
| 20260505124154 | 53 | 155 | 0.0 | 0.0 | 0.00 | 0.00 | 0.00 | 90 | 1016.1 |
| 20260505123143 | 53 | 155 | 0.0 | 0.0 | 0.00 | 0.00 | 0.00 | 90 | 1016.0 |
| 20260505122636 | 53 | 155 | 0.0 | 0.0 | 0.00 | 0.00 | 0.00 | 90 | 1015.9 |
| 20260505122131 | 53 | 155 | 0.0 | 0.0 | 0.00 | 0.00 | 0.00 | 90 | 1015.9 |
| 20260505121851 | 53 | 155 | 0.0 | 0.0 | 0.00 | 0.00 | 0.00 | 90 | 1015.7 |
| 20260505121346 | 53 | 155 | 0.0 | 0.9 | 0.00 | 0.00 | 0.00 | 90 | 1015.9 |
| 20260505120609 | 53 | 155 | 0.0 | 0.9 | 0.00 | 0.00 | 0.00 | 90 | 1015.8 |
| 20260505120601 | 53 | 155 | 0.9 | 0.9 | 0.00 | 0.00 | 0.00 | 90 | 1015.7 |
| 20260505115552 | 53 | 155 | 0.0 | 0.9 | 0.00 | 0.00 | 0.00 | 90 | 1015.9 |
| 20260505115046 | 53 | 155 | 0.0 | 0.0 | 0.00 | 0.00 | 0.00 | 90 | 1015.6 |
| 20260505114537 | 53 | 155 | 0.0 | 0.0 | 0.00 | 0.00 | 0.00 | 90 | 1015.7 |
| 20260505114030 | 53 | 155 | 0.0 | 0.9 | 0.00 | 0.00 | 0.00 | 90 | 1015.6 |
| 20260505113525 | 53 | 155 | 0.0 | 0.9 | 0.00 | 0.00 | 0.00 | 90 | 1015.6 |
| 20260505113245 | 53 | 155 | 0.0 | 0.9 | 0.00 | 0.00 | 0.00 | 90 | 1015.6 |
| 20260505112508 | 53 | 155 | 0.0 | 0.9 | 0.00 | 0.00 | 0.00 | 90 | 1015.6 |
| 20260505112004 | 53 | 155 | 0.0 | 1.7 | 0.00 | 0.00 | 0.00 | 90 | 1015.5 |
| 20260505111726 | 53 | 155 | 0.0 | 1.7 | 0.00 | 0.00 | 0.00 | 90 | 1015.5 |
| 20260505110946 | 53 | 156 | 0.0 | 1.7 | 0.00 | 0.00 | 0.00 | 89 | 1015.5 |
| 20260505110440 | 53 | 156 | 0.0 | 0.0 | 0.00 | 0.00 | 0.00 | 90 | 1015.5 |
| 20260505101928 | 54 | 154 | 0.0 | 1.7 | 0.00 | 0.00 | 0.00 | 89 | 1015.5 |
| 20260505101431 | 54 | 154 | 0.9 | 3.5 | 0.00 | 0.00 | 0.00 | 89 | 1015.4 |
| 20260505100925 | 54 | 154 | 0.9 | 3.5 | 0.00 | 0.00 | 0.00 | 89 | 1015.3 |
| 20260505100426 | 54 | 160 | 0.9 | 3.5 | 0.00 | 0.00 | 0.00 | 89 | 1015.4 |
| 20260505100157 | 54 | 142 | 1.7 | 5.2 | 0.00 | 0.00 | 0.00 | 89 | 1015.6 |
| 20260505095424 | 54 | 155 | 1.7 | 5.2 | 0.00 | 0.00 | 0.00 | 89 | 1015.5 |
| 20260505094920 | 54 | 144 | 0.9 | 3.5 | 0.00 | 0.00 | 0.00 | 89 | 1015.6 |
| 20260505094420 | 54 | 144 | 1.7 | 4.3 | 0.00 | 0.00 | 0.00 | 89 | 1015.5 |
| 20260505093914 | 54 | 140 | 0.9 | 4.3 | 0.00 | 0.00 | 0.00 | 88 | 1015.5 |
| 20260505093408 | 54 | 150 | 0.9 | 3.5 | 0.00 | 0.00 | 0.00 | 88 | 1015.4 |
| 20260505092907 | 54 | 148 | 0.9 | 1.7 | 0.00 | 0.00 | 0.00 | 88 | 1015.6 |
| 20260505092405 | 54 | 145 | 0.9 | 3.5 | 0.00 | 0.00 | 0.00 | 88 | 1015.5 |
| 20260505091910 | 54 | 145 | 0.9 | 3.5 | 0.00 | 0.00 | 0.00 | 88 | 1015.6 |
| 20260505091405 | 54 | 145 | 0.0 | 2.6 | 0.00 | 0.00 | 0.00 | 88 | 1015.8 |
| 20260505091137 | 54 | 146 | 0.0 | 0.9 | 0.00 | 0.00 | 0.00 | 87 | 1015.8 |
| 20260505090405 | 54 | 146 | 0.0 | 0.9 | 0.00 | 0.00 | 0.00 | 87 | 1015.8 |
| 20260505085903 | 54 | 146 | 0.0 | 0.9 | 0.00 | 0.00 | 0.00 | 87 | 1015.7 |
| 20260505085402 | 54 | 146 | 0.0 | 0.9 | 0.00 | 0.00 | 0.00 | 87 | 1015.9 |
| 20260505084900 | 54 | 146 | 0.0 | 0.9 | 0.00 | 0.00 | 0.00 | 87 | 1015.8 |
| 20260505084402 | 54 | 146 | 0.0 | 1.7 | 0.00 | 0.00 | 0.00 | 87 | 1015.8 |
| 20260505084358 | 54 | 146 | 0.0 | 1.7 | 0.00 | 0.00 | 0.00 | 87 | 1015.7 |
| 20260505083357 | 54 | 146 | 0.0 | 0.9 | 0.00 | 0.00 | 0.00 | 87 | 1015.9 |
| 20260505082857 | 54 | 146 | 0.0 | 0.9 | 0.00 | 0.00 | 0.00 | 87 | 1015.9 |
| 20260505082356 | 54 | 146 | 0.0 | 0.9 | 0.00 | 0.00 | 0.00 | 87 | 1015.9 |
| 20260505081858 | 54 | 146 | 0.0 | 0.9 | 0.00 | 0.00 | 0.00 | 87 | 1015.7 |
| 20260505081355 | 54 | 146 | 0.0 | 0.9 | 0.00 | 0.00 | 0.00 | 87 | 1015.8 |
| 20260505080854 | 54 | 146 | 0.0 | 0.0 | 0.00 | 0.00 | 0.00 | 87 | 1015.9 |
| 20260505080356 | 54 | 146 | 0.0 | 0.9 | 0.00 | 0.00 | 0.00 | 87 | 1015.9 |
| 20260505075856 | 54 | 146 | 0.0 | 0.9 | 0.00 | 0.00 | 0.00 | 87 | 1016.0 |
| 20260505075355 | 54 | 146 | 0.0 | 3.5 | 0.00 | 0.00 | 0.00 | 87 | 1016.0 |
| 20260505074856 | 54 | 146 | 0.9 | 3.5 | 0.00 | 0.00 | 0.00 | 87 | 1015.9 |
| 20260505074625 | 54 | 146 | 0.9 | 2.6 | 0.00 | 0.00 | 0.00 | 87 | 1015.9 |
| 20260505074128 | 54 | 146 | 0.9 | 3.5 | 0.00 | 0.00 | 0.00 | 87 | 1016.1 |
| 20260505073354 | 54 | 145 | 0.0 | 3.5 | 0.00 | 0.00 | 0.00 | 87 | 1016.2 |
| 20260505072855 | 54 | 146 | 0.0 | 0.9 | 0.00 | 0.00 | 0.00 | 86 | 1016.0 |
| 20260505072355 | 54 | 146 | 0.0 | 0.9 | 0.00 | 0.00 | 0.00 | 87 | 1016.2 |
| 20260505071859 | 54 | 146 | 0.0 | 0.9 | 0.00 | 0.00 | 0.00 | 87 | 1015.9 |
| 20260505071623 | 54 | 146 | 0.9 | 3.5 | 0.00 | 0.00 | 0.00 | 87 | 1016.1 |
| 20260505071125 | 54 | 146 | 0.9 | 3.5 | 0.00 | 0.00 | 0.00 | 87 | 1016.1 |
| 20260505070628 | 54 | 145 | 0.9 | 3.5 | 0.00 | 0.00 | 0.00 | 87 | 1016.2 |
| 20260505065850 | 54 | 146 | 0.0 | 1.7 | 0.00 | 0.00 | 0.00 | 87 | 1015.9 |
| 20260505065612 | 54 | 146 | 0.0 | 1.7 | 0.00 | 0.00 | 0.00 | 87 | 1016.1 |
| 20260505064834 | 54 | 146 | 0.9 | 3.5 | 0.00 | 0.00 | 0.00 | 87 | 1015.9 |
| 20260505064328 | 54 | 146 | 1.7 | 4.3 | 0.00 | 0.00 | 0.00 | 87 | 1015.9 |
| 20260505063818 | 54 | 139 | 0.9 | 4.3 | 0.00 | 0.00 | 0.00 | 87 | 1016.1 |
| 20260505063313 | 54 | 165 | 0.9 | 3.5 | 0.00 | 0.00 | 0.00 | 87 | 1016.0 |
| 20260505062807 | 54 | 165 | 0.9 | 3.5 | 0.00 | 0.00 | 0.00 | 87 | 1015.7 |
| 20260505062257 | 54 | 165 | 0.9 | 3.5 | 0.00 | 0.00 | 0.00 | 87 | 1016.1 |
| 20260505061751 | 54 | 168 | 0.9 | 3.5 | 0.00 | 0.00 | 0.00 | 88 | 1016.0 |
| 20260505061245 | 54 | 154 | 0.0 | 3.5 | 0.00 | 0.00 | 0.00 | 88 | 1016.0 |
| 20260505060735 | 54 | 155 | 0.0 | 0.0 | 0.00 | 0.00 | 0.00 | 88 | 1016.0 |
| 20260505060229 | 54 | 156 | 0.0 | 1.7 | 0.00 | 0.00 | 0.00 | 88 | 1016.0 |
| 20260505055722 | 54 | 156 | 0.9 | 3.5 | 0.00 | 0.00 | 0.00 | 88 | 1016.2 |
| 20260505055213 | 54 | 157 | 0.0 | 2.6 | 0.00 | 0.00 | 0.00 | 88 | 1016.2 |
| 20260505054937 | 54 | 163 | 0.0 | 1.7 | 0.00 | 0.00 | 0.00 | 88 | 1016.1 |
| 20260505054201 | 54 | 163 | 0.0 | 1.7 | 0.00 | 0.00 | 0.00 | 88 | 1016.1 |
| 20260505053651 | 54 | 163 | 0.0 | 0.9 | 0.00 | 0.00 | 0.00 | 88 | 1016.3 |
| 20260505053145 | 54 | 163 | 0.9 | 3.5 | 0.00 | 0.00 | 0.00 | 88 | 1016.2 |
| 20260505052638 | 54 | 163 | 0.9 | 3.5 | 0.00 | 0.00 | 0.00 | 88 | 1016.2 |
| 20260505052129 | 54 | 140 | 0.9 | 4.3 | 0.00 | 0.00 | 0.00 | 88 | 1016.0 |
| 20260505051623 | 54 | 138 | 1.7 | 4.3 | 0.00 | 0.00 | 0.00 | 88 | 1016.0 |
| 20260505051116 | 54 | 148 | 0.9 | 4.3 | 0.00 | 0.00 | 0.00 | 88 | 1015.9 |
| 20260505050606 | 54 | 136 | 0.9 | 3.5 | 0.00 | 0.00 | 0.00 | 88 | 1015.9 |
| 20260505041538 | 55 | 147 | 0.9 | 4.3 | 0.00 | 0.00 | 0.00 | 88 | 1015.9 |
| 20260505041040 | 55 | 144 | 0.9 | 3.5 | 0.00 | 0.00 | 0.00 | 87 | 1015.9 |
| 20260505040538 | 55 | 155 | 0.9 | 3.5 | 0.00 | 0.00 | 0.00 | 87 | 1015.8 |
| 20260505040035 | 55 | 161 | 0.9 | 3.5 | 0.00 | 0.00 | 0.00 | 87 | 1015.7 |
| 20260505035535 | 55 | 161 | 0.9 | 3.5 | 0.00 | 0.00 | 0.00 | 87 | 1015.8 |
| 20260505035036 | 55 | 165 | 0.0 | 3.5 | 0.00 | 0.00 | 0.00 | 87 | 1015.6 |
| 20260505034535 | 55 | 166 | 0.0 | 1.7 | 0.00 | 0.00 | 0.00 | 87 | 1015.7 |
| 20260505034033 | 55 | 166 | 0.0 | 1.7 | 0.00 | 0.00 | 0.00 | 87 | 1015.7 |
| 20260505033806 | 55 | 168 | 0.0 | 0.9 | 0.00 | 0.00 | 0.00 | 87 | 1015.7 |
| 20260505033030 | 55 | 168 | 0.0 | 1.7 | 0.00 | 0.00 | 0.00 | 86 | 1015.5 |
| 20260505033024 | 55 | 168 | 0.0 | 1.7 | 0.00 | 0.00 | 0.00 | 86 | 1015.6 |
| 20260505032012 | 55 | 168 | 0.0 | 1.7 | 0.00 | 0.00 | 0.00 | 86 | 1015.4 |
| 20260505031509 | 55 | 168 | 0.0 | 1.7 | 0.00 | 0.00 | 0.00 | 86 | 1015.5 |
| 20260505030959 | 55 | 167 | 0.0 | 1.7 | 0.00 | 0.00 | 0.00 | 86 | 1015.3 |
| 20260505030450 | 55 | 167 | 0.0 | 1.7 | 0.00 | 0.00 | 0.00 | 86 | 1015.1 |
| 20260505025950 | 55 | 167 | 0.0 | 1.7 | 0.00 | 0.00 | 0.00 | 87 | 1015.1 |
| 20260505025447 | 56 | 167 | 0.9 | 1.7 | 0.00 | 0.00 | 0.00 | 87 | 1015.0 |
| 20260505025219 | 56 | 167 | 0.9 | 1.7 | 0.00 | 0.00 | 0.00 | 87 | 1015.1 |
| 20260505024447 | 56 | 167 | 0.0 | 1.7 | 0.00 | 0.00 | 0.00 | 87 | 1015.1 |
| 20260505023947 | 56 | 167 | 0.0 | 1.7 | 0.00 | 0.00 | 0.00 | 87 | 1015.1 |
| 20260505023444 | 56 | 167 | 0.9 | 1.7 | 0.00 | 0.00 | 0.00 | 87 | 1015.1 |
| 20260505023213 | 56 | 167 | 0.9 | 3.5 | 0.00 | 0.00 | 0.00 | 87 | 1015.0 |
| 20260505022442 | 56 | 167 | 0.9 | 3.5 | 0.00 | 0.00 | 0.00 | 87 | 1015.0 |
| 20260505021942 | 56 | 169 | 0.9 | 3.5 | 0.00 | 0.00 | 0.00 | 87 | 1015.0 |
| 20260505021439 | 56 | 170 | 0.9 | 3.5 | 0.00 | 0.00 | 0.00 | 87 | 1015.0 |
| 20260505020939 | 56 | 144 | 0.9 | 5.2 | 0.00 | 0.00 | 0.00 | 87 | 1015.1 |
| 20260505020441 | 56 | 144 | 1.7 | 5.2 | 0.00 | 0.00 | 0.00 | 86 | 1015.0 |
| 20260505020212 | 56 | 148 | 1.7 | 4.3 | 0.00 | 0.00 | 0.00 | 87 | 1015.1 |
| 20260505015440 | 56 | 148 | 1.7 | 5.2 | 0.00 | 0.00 | 0.00 | 86 | 1015.2 |
| 20260505015214 | 56 | 151 | 1.7 | 5.2 | 0.00 | 0.00 | 0.00 | 86 | 1015.1 |
| 20260505014442 | 56 | 139 | 1.7 | 4.3 | 0.00 | 0.00 | 0.00 | 86 | 1015.1 |
| 20260505013943 | 56 | 142 | 0.9 | 4.3 | 0.00 | 0.00 | 0.00 | 86 | 1015.1 |
| 20260505013442 | 56 | 159 | 0.9 | 4.3 | 0.00 | 0.00 | 0.00 | 86 | 1015.1 |
| 20260505012942 | 56 | 171 | 0.9 | 3.5 | 0.00 | 0.00 | 0.00 | 86 | 1015.1 |
| 20260505012442 | 56 | 175 | 1.7 | 5.2 | 0.00 | 0.00 | 0.00 | 86 | 1015.4 |
| 20260505011941 | 56 | 134 | 1.7 | 5.2 | 0.00 | 0.00 | 0.00 | 86 | 1015.1 |
| 20260505011440 | 56 | 136 | 1.7 | 4.3 | 0.00 | 0.00 | 0.00 | 86 | 1015.4 |
| 20260505011210 | 56 | 142 | 2.6 | 4.3 | 0.00 | 0.00 | 0.00 | 86 | 1015.4 |
| 20260505011103 | 57 | 148 | 1.7 | 4.3 | 0.00 | 0.00 | 0.00 | 86 | 1015.5 |
| 20260505010210 | 57 | 138 | 0.9 | 4.3 | 0.00 | 0.00 | 0.00 | 86 | 1015.3 |
| 20260505005439 | 57 | 146 | 0.9 | 4.3 | 0.00 | 0.00 | 0.00 | 86 | 1015.4 |
| 20260505005209 | 56 | 121 | 1.7 | 6.1 | 0.00 | 0.00 | 0.00 | 86 | 1015.5 |
| 20260505004438 | 57 | 149 | 1.7 | 6.1 | 0.00 | 0.00 | 0.00 | 86 | 1015.5 |
| 20260505003932 | 57 | 154 | 1.7 | 3.5 | 0.00 | 0.00 | 0.00 | 86 | 1015.4 |
| 20260505003429 | 57 | 153 | 2.6 | 4.3 | 0.00 | 0.00 | 0.00 | 86 | 1015.5 |
| 20260505002928 | 57 | 136 | 1.7 | 5.2 | 0.00 | 0.00 | 0.00 | 85 | 1015.6 |
| 20260505002428 | 57 | 140 | 1.7 | 5.2 | 0.00 | 0.00 | 0.00 | 85 | 1015.5 |
| 20260505001927 | 57 | 136 | 1.7 | 5.2 | 0.00 | 0.00 | 0.00 | 85 | 1015.6 |
| 20260505001426 | 57 | 132 | 1.7 | 5.2 | 0.00 | 0.00 | 0.00 | 86 | 1015.8 |
| 20260505000930 | 57 | 144 | 1.7 | 5.2 | 0.00 | 0.00 | 0.00 | 85 | 1015.7 |
| 20260505000659 | 57 | 132 | 1.7 | 5.2 | 0.00 | 0.00 | 0.00 | 86 | 1015.8 |
| 20260504235925 | 57 | 149 | 2.6 | 6.1 | 0.00 | 0.00 | 0.00 | 85 | 1015.7 |
| 20260504235423 | 57 | 158 | 1.7 | 6.1 | 0.00 | 0.00 | 0.00 | 85 | 1015.9 |
| 20260504234922 | 57 | 148 | 1.7 | 5.2 | 0.00 | 0.00 | 0.00 | 85 | 1015.9 |
| 20260504234420 | 57 | 135 | 1.7 | 6.1 | 0.00 | 0.00 | 0.00 | 85 | 1015.8 |
| 20260504233920 | 57 | 152 | 2.6 | 6.1 | 0.00 | 0.00 | 0.00 | 85 | 1015.8 |
| 20260504233419 | 57 | 142 | 1.7 | 4.3 | 0.00 | 0.00 | 0.00 | 85 | 1015.9 |
| 20260504232916 | 57 | 139 | 1.7 | 4.3 | 0.00 | 0.00 | 0.00 | 85 | 1016.0 |
| 20260504232650 | 58 | 157 | 1.7 | 5.2 | 0.00 | 0.00 | 0.00 | 85 | 1015.9 |
| 20260504231914 | 58 | 184 | 0.9 | 5.2 | 0.00 | 0.00 | 0.00 | 85 | 1015.9 |
| 20260504231403 | 58 | 194 | 1.7 | 4.3 | 0.00 | 0.00 | 0.00 | 85 | 1016.0 |
| 20260504230858 | 58 | 142 | 0.9 | 4.3 | 0.00 | 0.00 | 0.00 | 85 | 1015.9 |
| 20260504230352 | 58 | 167 | 0.9 | 3.5 | 0.00 | 0.00 | 0.00 | 85 | 1016.0 |
| 20260504225841 | 58 | 184 | 1.7 | 6.1 | 0.00 | 0.00 | 0.00 | 85 | 1016.2 |
| 20260504225336 | 58 | 188 | 1.7 | 6.1 | 0.00 | 0.00 | 0.00 | 85 | 1016.2 |
| 20260504224829 | 58 | 336 | 0.9 | 5.2 | 0.00 | 0.00 | 0.00 | 86 | 1016.2 |